Location: Goll?ig?dem
(16.6773°N, 80.7332°E)
Time: 14:18:09
(UTC+00:00)

Cosmos 968 Rocket - Pass Details

Date: 19 May 2025
Orbit: 736 x 766 km, 74.0° (Epoch: 17 June)

Event Time Altitude Azimuth Distance (km) Brightness Sun altitude
Rises 23:25:25 0° 189° (S) 3,153 6.4 -9.5°
Reaches altitude 10° 23:27:45 10° 188° (S) 2,233 5.6 -9.0°
Maximum altitude 23:32:48 76° 102° (ESE) 760 3.6 -7.9°
Drops below altitude 10° 23:37:53 10° 17° (NNE) 2,250 6.6 -6.8°
Sets 23:40:14 0° 16° (NNE) 3,179 7.3 -6.3°
